Wind_Speed
9 8 4 6 5 12 7 8 5 14 13 7 7 5 12 16 14 26 18 32 33 32 25 20 21 24 22 20 16 13 8 4 2 3 5 6 7 7 8 9 10 11 11 12
4 8 9 8 12 9 15 14 15 11 5 8 8 4 14 28 21 22 39 26 35 25 23 23 21 19 16 14 12 9 5 2 3 4 4 6 8 11 12 12 13 14 14 14
6 6 10 9 9 15 1 16 17 7 9 5 5 8 16 19 21 49 49 30 29 29 27 24 23 19 15 13 8 4 1 2 3 4 5 6 8 6 6 8 8 8 9 9
5 5 4 4 17 14 16 5 6 7 10 17 13 27 34 40 51 46 29 34 34 29 22 19 20 19 14 9 5 1 3 3 6 7 8 8 8 9 10 10 11 11 11 11
4 4 8 9 10 7 8 5 3 6 4 5 14 15 24 40 38 27 35 33 29 24 25 26 23 20 14 8 3 5 7 8 8 11 12 13 13 13 12 12 13 13 15 15
1 6 5 2 10 20 10 5 17 16 2 8 15 5 6 22 13 20 32 35 30 33 31 30 25 19 13 9 9 9 9 10 12 14 13 9 8 8 10 14 13 12 10 9
1 4 1 1 9 18 5 4 24 9 5 19 5 8 14 13 22 32 33 33 31 34 30 25 21 15 9 9 8 9 10 13 12 11 9 8 9 11 10 10 9 10 9 9
4 4 3 2 7 4 6 5 16 25 29 16 2 14 35 38 40 39 36 33 30 26 22 18 13 9 9 9 10 10 12 11 10 9 8 7 7 7 5 6 6 7 7 7
4 3 1 4 7 19 7 12 15 9 7 21 25 26 28 32 35 33 31 28 22 19 13 11 11 9 9 10 10 11 10 9 7 6 6 6 7 5 6 8 8 11 12 11
2 2 2 3 8 10 10 6 2 7 8 15 20 25 28 29 29 27 23 22 16 15 15 13 9 8 9 11 9 9 8 6 3 7 6 7 7 9 8 11 10 9 9 10
2 6 15 5 14 8 9 16 16 12 12 18 20 21 25 22 18 17 19 17 18 16 13 12 11 11 11 8 7 7 3 2 1 3 5 8 5 5 5 7 9 10 12 14
2 4 11 4 10 9 7 10 7 3 7 23 27 26 23 20 18 22 19 18 18 17 15 14 12 9 8 5 3 1 3 0 3 2 5 9 9 9 11 12 9 9 11 14
4 6 4 3 5 8 13 6 9 7 15 23 24 25 26 26 27 27 24 21 20 18 16 12 10 7 4 2 1 1 3 6 4 2 5 8 11 11 8 5 7 13 17 16
12 11 11 14 15 14 14 14 10 7 21 22 22 29 29 26 23 21 20 18 18 18 16 14 11 9 6 4 3 5 3 1 6 2 6 6 8 8 11 6 7 11 17 16
7 6 8 12 11 16 9 10 10 11 16 20 20 23 22 20 19 19 19 17 16 15 14 13 12 8 8 9 4 7 3 3 9 4 4 2 3 3 6 5 6 10 12 16
7 5 8 13 16 16 18 14 13 8 22 25 28 26 21 18 19 18 16 15 16 16 12 9 7 6 3 6 7 1 4 6 5 3 1 1 3 2 6 2 3 8 11 14
6 10 9 13 14 14 16 18 17 12 22 23 28 26 25 24 23 18 15 14 13 15 13 10 7 7 2 8 8 5 3 3 3 2 5 6 4 0 7 5 8 9 9 12
8 7 6 7 9 12 13 16 13 6 18 26 28 28 26 25 20 17 17 18 19 15 12 8 7 6 4 5 10 8 5 2 2 3 6 3 3 2 6 7 9 6 9 12
11 10 9 8 10 7 8 9 10 3 12 20 28 27 26 22 18 18 20 21 16 15 17 11 4 7 6 4 9 7 6 5 3 2 5 4 6 4 5 8 7 6 10 10
9 10 12 12 9 9 7 7 6 5 4 13 17 23 24 21 19 20 23 22 17 18 17 15 9 6 6 4 2 5 5 8 4 4 2 1 4 4 8 7 8 11 10 10
3 5 5 10 12 10 6 5 5 4 4 12 18 22 23 24 26 26 26 22 18 17 16 18 15 7 7 8 7 4 8 12 12 5 4 4 6 6 8 7 9 12 8 11
4 4 4 4 6 10 9 4 3 3 4 6 12 20 22 28 30 26 25 23 16 12 14 17 14 12 11 13 10 9 9 8 7 4 5 4 5 7 10 8 13 12 6 9
5 5 4 6 5 7 8 5 5 3 4 8 12 10 9 17 17 13 12 16 15 14 21 20 14 12 12 13 12 14 18 16 11 13 10 11 13 10 11 12 12 10 7 9
4 6 6 5 7 10 9 8 4 4 5 3 2 7 8 6 6 10 15 18 17 20 19 16 17 16 13 15 17 18 15 14 13 11 12 10 10 13 16 14 12 12 13 13
8 7 6 7 8 7 7 9 10 10 10 12 8 5 4 6 10 10 15 9 5 19 19 14 13 16 16 18 18 13 15 14 13 15 16 14 14 16 16 16 13 15 18 15
5 7 5 8 8 5 5 6 3 3 4 3 6 12 10 7 11 8 6 8 6 5 6 9 13 17 17 13 6 9 13 12 13 16 18 15 16 16 12 13 16 16 18 15
8 8 8 5 7 4 1 3 3 6 6 7 11 11 10 8 9 7 7 7 5 7 8 12 11 10 12 8 9 12 18 13 15 18 16 13 13 14 14 13 16 18 20 20
Wind_Direction
125 188 187 202 272 292 290 274 204 152 140 154 212 234 115 146 258 305 319 156 163 157 155 152 153 154 158 157 163 164 166 166 179 236 238 239 241 250 259 262 262 263 259 255
255 196 155 233 237 270 283 91 72 66 84 210 217 230 176 161 185 234 282 177 156 166 166 156 155 156 155 156 158 164 173 227 280 284 277 275 265 264 270 272 271 269 269 269
262 229 205 237 225 236 314 138 143 129 228 191 137 178 131 181 199 214 246 172 154 156 157 162 160 153 157 166 174 182 228 334 320 320 329 322 315 311 296 290 288 290 296 297
223 278 266 106 26 10 115 153 100 116 181 200 178 186 169 185 179 206 231 157 154 162 165 162 158 162 172 189 191 248 334 286 280 301 307 298 290 286 279 273 275 277 277 275
158 224 251 22 15 0 19 84 280 157 168 108 139 158 207 195 191 208 177 155 162 165 161 158 167 170 179 180 179 220 254 267 289 300 297 290 288 286 286 286 279 269 261 264
228 198 238 210 315 305 245 80 18 340 356 180 156 179 227 187 219 215 159 153 153 162 162 165 163 177 187 181 212 237 256 280 290 300 304 312 312 308 305 301 316 312 291 291
19 80 217 303 289 308 61 242 319 336 234 204 234 180 235 230 157 160 151 155 159 160 158 158 167 185 186 210 231 251 272 289 302 311 312 302 309 313 333 354 2 0 347 330
19 76 23 227 303 144 165 46 44 9 352 115 85 170 145 140 142 150 152 148 154 152 156 163 183 192 213 231 253 272 281 286 302 306 315 335 345 338 335 344 338 325 314 309
28 212 344 250 236 150 135 96 81 58 42 168 123 122 130 143 147 141 148 147 151 158 166 194 207 219 228 246 267 281 284 292 302 321 346 322 331 346 316 318 304 306 316 307
259 299 198 68 180 213 249 215 146 292 258 164 141 137 134 147 152 152 148 145 147 156 170 182 205 222 249 262 273 271 271 277 334 33 15 352 357 3 0 358 350 346 346 352
111 47 37 338 251 270 280 301 266 270 169 156 143 147 151 146 144 147 150 151 158 171 191 201 221 248 261 270 273 263 265 70 12 251 272 301 8 13 10 14 14 4 10 357
139 102 164 199 16 10 352 358 4 187 187 174 168 159 155 153 158 159 163 170 175 183 195 207 229 246 255 250 251 143 145 336 165 52 7 4 14 29 50 36 33 8 359 350
51 38 60 349 324 358 7 331 309 256 189 158 164 168 167 163 165 164 168 169 174 182 195 213 226 230 249 289 338 19 10 58 80 336 349 11 22 34 46 23 359 341 344 344
39 29 11 353 330 327 324 324 312 271 175 164 163 160 165 165 165 176 181 189 194 198 200 197 207 221 208 222 245 186 135 94 14 184 289 338 351 356 347 280 329 348 350 355
30 9 336 320 353 17 359 337 324 187 170 166 155 160 165 161 165 175 182 190 195 197 188 187 206 218 202 203 205 136 133 197 334 160 36 20 346 332 8 12 15 12 359 349
12 24 12 11 11 10 359 336 331 334 180 166 174 180 189 189 192 192 195 195 180 173 178 190 199 186 187 173 152 153 185 217 33 71 343 309 357 340 8 323 347 345 343 346
61 40 19 7 3 5 354 338 337 314 198 184 189 187 180 179 179 184 187 186 189 182 189 194 181 158 120 178 143 125 94 65 102 279 313 325 354 37 355 324 349 359 344 348
81 63 33 5 5 353 344 341 344 359 196 192 184 174 168 174 179 178 182 197 188 193 196 181 171 153 128 48 175 153 146 173 319 335 351 47 349 1 8 346 348 355 352 349
59 45 25 17 5 348 346 342 349 23 136 150 158 165 167 175 187 169 198 195 202 193 208 194 166 192 182 32 172 186 176 187 245 258 348 46 14 28 1 359 351 343 330 338
46 34 16 24 6 353 349 337 329 315 209 202 189 172 173 168 188 183 202 210 206 195 214 216 202 164 183 230 304 215 182 243 248 224 350 69 341 334 336 340 330 337 335 337
50 39 351 0 11 8 348 353 324 319 239 193 185 175 181 176 190 184 195 201 206 208 214 225 215 211 220 248 247 246 303 293 232 215 260 283 304 334 305 319 341 344 325 326
7 358 337 348 359 11 11 20 348 351 269 226 197 191 184 179 183 187 195 204 196 217 221 216 224 237 233 241 261 240 280 299 218 251 254 232 285 310 322 310 330 334 327 318
313 322 306 286 282 328 12 15 358 325 293 255 245 231 197 178 186 205 233 230 217 234 228 232 243 250 255 268 270 260 247 255 267 272 268 278 288 284 299 288 292 307 287 319
307 311 304 285 276 293 310 319 324 355 356 13 278 244 224 201 229 239 253 248 235 248 222 211 245 249 249 269 279 270 246 261 245 267 301 274 272 275 281 289 299 284 278 304
296 294 284 291 296 296 291 302 294 297 286 274 264 238 214 231 240 249 252 262 312 230 241 239 248 254 259 270 282 241 240 252 239 246 261 275 284 279 284 282 285 268 264 287
284 292 293 290 293 307 308 326 30 32 41 1 256 233 225 232 243 241 205 185 221 211 217 231 245 254 262 264 240 229 240 243 258 265 269 269 270 286 275 271 262 272 265 277
299 282 280 298 268 226 186 87 83 85 80 67 84 115 126 130 136 126 134 157 210 232 259 269 272 268 239 224 234 268 259 265 261 257 269 270 274 279 280 290 286 294 282 277
Height
1460 1458 1451 1453 1454 1452 1456 1454 1466 1470 1480 1484 1483 1478 1479 1477 1491 1499 1501 1490 1495 1500 1508 1509 1511 1516 1520 1522 1526 1528 1530 1532 1534 1535 1536 1536 1535 1534 1534 1534 1534 1533 1532 1532
1455 1448 1444 1450 1446 1445 1442 1461 1468 1473 1480 1476 1475 1474 1471 1468 1481 1494 1499 1498 1490 1497 1507 1511 1514 1516 1519 1522 1526 1529 1531 1532 1533 1533 1533 1533 1533 1532 1532 1531 1531 1530 1529 1528
1470 1447 1455 1472 1446 1442 1440 1452 1456 1477 1474 1463 1471 1472 1468 1471 1473 1482 1496 1495 1490 1497 1504 1512 1515 1518 1521 1523 1526 1529 1529 1531 1531 1530 1529 1529 1529 1529 1528 1528 1527 1526 1525 1524
1470 1456 1482 1459 1445 1441 1433 1449 1450 1454 1457 1461 1468 1471 1471 1471 1469 1481 1490 1482 1489 1498 1505 1509 1514 1517 1521 1525 1526 1527 1528 1527 1526 1527 1527 1527 1526 1525 1525 1524 1524 1522 1521 1520
1471 1473 1454 1454 1457 1464 1461 1471 1465 1458 1456 1466 1475 1478 1478 1472 1482 1486 1481 1479 1487 1500 1504 1507 1512 1516 1520 1523 1526 1525 1525 1524 1524 1524 1524 1523 1523 1522 1521 1520 1519 1517 1516 1516
1453 1471 1476 1470 1459 1450 1456 1478 1466 1465 1466 1464 1462 1477 1462 1465 1477 1481 1479 1479 1485 1492 1498 1503 1511 1515 1518 1521 1521 1522 1522 1522 1522 1520 1519 1519 1518 1517 1516 1515 1514 1513 1512 1513
1452 1462 1472 1464 1460 1451 1470 1480 1463 1467 1464 1472 1470 1462 1453 1459 1466 1470 1469 1483 1486 1492 1497 1503 1506 1512 1514 1515 1517 1518 1519 1518 1518 1516 1516 1515 1514 1514 1513 1512 1512 1511 1510 1510
1463 1471 1474 1458 1459 1465 1468 1464 1455 1456 1461 1467 1480 1469 1463 1463 1467 1472 1476 1479 1487 1492 1497 1501 1506 1508 1510 1512 1514 1515 1516 1514 1514 1513 1513 1512 1512 1512 1511 1510 1510 1509 1508 1507
1472 1472 1458 1462 1463 1460 1458 1457 1452 1455 1454 1470 1458 1464 1461 1464 1468 1470 1475 1480 1485 1489 1495 1499 1504 1506 1508 1510 1510 1512 1512 1512 1512 1511 1511 1511 1509 1509 1508 1507 1506 1505 1503 1502
1474 1469 1465 1463 1465 1466 1464 1459 1453 1447 1451 1460 1459 1465 1467 1470 1473 1475 1478 1483 1487 1490 1495 1499 1504 1506 1507 1508 1510 1510 1510 1510 1510 1511 1511 1509 1506 1506 1506 1505 1503 1501 1500 1499
1471 1470 1465 1464 1465 1465 1464 1460 1455 1455 1455 1459 1462 1466 1470 1472 1477 1481 1482 1487 1490 1492 1497 1500 1502 1505 1507 1509 1508 1508 1508 1508 1510 1510 1509 1508 1506 1506 1505 1504 1502 1501 1500 1498
1470 1466 1467 1468 1464 1466 1465 1461 1461 1459 1458 1459 1462 1468 1473 1473 1476 1480 1483 1486 1490 1494 1498 1500 1503 1506 1507 1508 1507 1506 1507 1507 1508 1509 1507 1506 1505 1505 1504 1503 1502 1501 1500 1498
1464 1464 1465 1468 1468 1466 1464 1462 1461 1461 1462 1463 1464 1465 1469 1472 1476 1480 1484 1488 1492 1495 1498 1500 1502 1504 1505 1504 1505 1506 1507 1507 1506 1506 1506 1505 1505 1504 1502 1502 1501 1499 1497 1496
1464 1464 1465 1466 1466 1464 1461 1461 1461 1460 1459 1462 1463 1463 1467 1472 1477 1481 1484 1488 1491 1494 1499 1500 1502 1503 1504 1505 1505 1506 1507 1505 1507 1505 1505 1504 1503 1502 1502 1501 1499 1498 1496 1494
1469 1468 1468 1467 1465 1461 1457 1456 1457 1456 1454 1459 1464 1466 1471 1476 1481 1483 1486 1489 1492 1497 1499 1499 1502 1503 1504 1504 1504 1505 1505 1504 1504 1503 1503 1503 1502 1501 1501 1500 1498 1496 1494 1494
1466 1468 1466 1464 1462 1459 1457 1457 1456 1456 1455 1456 1458 1462 1467 1475 1479 1484 1488 1490 1493 1494 1497 1499 1501 1502 1502 1503 1504 1504 1503 1504 1503 1502 1502 1501 1499 1499 1500 1498 1497 1495 1494 1492
1469 1467 1466 1465 1464 1462 1460 1458 1455 1452 1454 1455 1456 1458 1464 1469 1477 1483 1489 1492 1495 1496 1497 1498 1499 1500 1501 1501 1501 1501 1502 1502 1502 1502 1500 1499 1498 1498 1498 1496 1495 1494 1492 1490
1467 1466 1466 1466 1464 1462 1460 1458 1455 1451 1451 1453 1456 1458 1461 1471 1476 1482 1488 1493 1493 1496 1496 1497 1498 1499 1499 1499 1499 1500 1500 1501 1501 1500 1499 1498 1497 1497 1496 1494 1493 1492 1490 1489
1465 1465 1465 1464 1463 1462 1460 1458 1456 1454 1454 1455 1453 1461 1463 1469 1477 1478 1489 1491 1492 1493 1496 1494 1494 1495 1496 1498 1498 1499 1499 1499 1499 1498 1497 1497 1496 1496 1495 1493 1492 1491 1490 1488
1464 1465 1464 1463 1462 1461 1460 1459 1458 1457 1456 1458 1458 1459 1464 1465 1473 1477 1486 1488 1488 1487 1494 1492 1493 1492 1493 1495 1497 1497 1497 1497 1497 1496 1496 1495 1495 1495 1493 1492 1491 1489 1487 1486
1465 1465 1464 1464 1463 1461 1460 1459 1459 1459 1459 1458 1458 1459 1461 1459 1472 1472 1479 1482 1486 1485 1488 1489 1490 1489 1491 1492 1494 1494 1493 1492 1494 1493 1493 1493 1493 1492 1491 1490 1488 1487 1485 1484
1464 1465 1464 1463 1463 1462 1460 1459 1459 1459 1459 1460 1458 1460 1462 1463 1466 1470 1474 1477 1479 1483 1484 1486 1487 1487 1487 1488 1490 1491 1491 1492 1492 1491 1491 1490 1490 1490 1489 1488 1486 1485 1483 1481
1462 1462 1463 1462 1461 1461 1461 1460 1459 1459 1459 1460 1460 1459 1460 1459 1462 1466 1471 1474 1476 1478 1478 1482 1483 1483 1484 1485 1486 1487 1488 1488 1488 1487 1488 1488 1487 1487 1485 1484 1483 1482 1479 1479
1460 1461 1460 1460 1460 1459 1459 1460 1460 1460 1460 1460 1461 1461 1460 1462 1463 1465 1467 1470 1472 1473 1474 1476 1479 1481 1482 1482 1481 1481 1481 1482 1484 1485 1484 1483 1483 1483 1481 1480 1479 1478 1476 1475
1461 1460 1460 1460 1459 1459 1459 1458 1457 1458 1459 1460 1461 1460 1460 1462 1464 1465 1465 1467 1467 1467 1469 1473 1476 1478 1478 1477 1476 1476 1477 1478 1479 1480 1479 1479 1478 1476 1476 1476 1475 1473 1472 1470
1458 1458 1458 1458 1458 1458 1458 1458 1457 1457 1456 1456 1456 1458 1460 1459 1459 1460 1461 1462 1464 1465 1467 1469 1471 1472 1473 1473 1472 1472 1473 1474 1474 1474 1474 1474 1474 1473 1470 1469 1469 1468 1467 1465
1456 1456 1456 1456 1456 1456 1458 1458 1458 1458 1458 1458 1458 1458 1459 1460 1460 1460 1461 1462 1463 1464 1466 1467 1467 1466 1468 1469 1469 1469 1469 1469 1470 1470 1469 1468 1468 1468 1466 1464 1463 1463 1461 1460